| time (UTC) | temp C | wind direction | speed KPH | gust KPH | rain 1hr cm | rain 24hr cm | rain mn cm | humidity % | barometer mb |
| 20260906204555 | 25 | 285 | 3.2 | 16.1 | 0.00 | 0.03 | 0.03 | 76 | 1012.7 |
| 20260906203030 | 25 | 141 | 3.2 | 17.7 | 0.00 | 0.03 | 0.03 | 76 | 1012.7 |
| 20260906201600 | 25 | 132 | 3.2 | 16.1 | 0.00 | 0.03 | 0.03 | 77 | 1013.0 |
| 20260906200019 | 25 | 117 | 8.0 | 16.1 | 0.00 | 0.03 | 0.03 | 75 | 1013.0 |
| 20260906194546 | 25 | 97 | 3.2 | 12.9 | 0.00 | 0.03 | 0.03 | 75 | 1013.3 |
| 20260906193015 | 25 | 117 | 0.0 | 12.9 | 0.00 | 0.03 | 0.03 | 75 | 1013.5 |
| 20260906191557 | 25 | 141 | 3.2 | 9.7 | 0.00 | 0.03 | 0.03 | 76 | 1013.4 |
| 20260906190017 | 24 | 54 | 0.0 | 14.5 | 0.00 | 0.03 | 0.03 | 78 | 1013.7 |
| 20260906184601 | 23 | 120 | 1.6 | 12.9 | 0.00 | 0.03 | 0.03 | 79 | 1013.9 |
| 20260906183000 | 23 | 103 | 0.0 | 9.7 | 0.00 | 0.03 | 0.03 | 81 | 1014.0 |
| 20260906181534 | 23 | 141 | 0.0 | 8.0 | 0.00 | 0.03 | 0.03 | 82 | 1014.4 |
| 20260906174516 | 21 | 151 | 4.8 | 14.5 | 0.00 | 0.03 | 0.03 | 89 | 1014.5 |
| 20260906173058 | 21 | 126 | 4.8 | 9.7 | 0.00 | 0.03 | 0.03 | 90 | 1014.8 |
| 20260906171518 | 20 | 79 | 8.0 | 14.5 | 0.00 | 0.03 | 0.03 | 91 | 1015.0 |
| 20260906170112 | 20 | 49 | 0.0 | 6.4 | 0.00 | 0.03 | 0.03 | 92 | 1015.2 |
| 20260906164519 | 20 | 76 | 0.0 | 11.3 | 0.00 | 0.03 | 0.03 | 94 | 1015.3 |
| 20260906163102 | 20 | 128 | 0.0 | 4.8 | 0.00 | 0.03 | 0.03 | 95 | 1015.4 |
| 20260906161536 | 19 | 101 | 1.6 | 9.7 | 0.00 | 0.03 | 0.03 | 97 | 1015.3 |
| 20260906160029 | 18 | 107 | 3.2 | 12.9 | 0.00 | 0.03 | 0.03 | 98 | 1015.3 |
| 20260906154507 | 18 | 99 | 3.2 | 6.4 | 0.00 | 0.03 | 0.03 | 99 | 1015.3 |
| 20260906153041 | 18 | 130 | 0.0 | 9.7 | 0.00 | 0.03 | 0.03 | 99 | 1015.3 |
| 20260906151508 | 18 | 132 | 0.0 | 12.9 | 0.00 | 0.03 | 0.03 | 99 | 1015.3 |
| 20260906150037 | 18 | 151 | 0.0 | 9.7 | 0.00 | 0.03 | 0.03 | 99 | 1015.2 |
| 20260906144518 | 18 | 66 | 4.8 | 12.9 | 0.00 | 0.03 | 0.03 | 99 | 1015.3 |
| 20260906143037 | 18 | 131 | 0.0 | 6.4 | 0.00 | 0.03 | 0.03 | 99 | 1015.2 |
| 20260906141514 | 17 | 117 | 0.0 | 4.8 | 0.00 | 0.03 | 0.03 | 99 | 1015.3 |
| 20260906140038 | 17 | 77 | 0.0 | 4.8 | 0.00 | 0.03 | 0.03 | 99 | 1015.5 |
| 20260906134600 | 17 | 155 | 0.0 | 1.6 | 0.00 | 0.03 | 0.03 | 99 | 1015.5 |
| 20260906133030 | 17 | 105 | 1.6 | 8.0 | 0.00 | 0.03 | 0.03 | 99 | 1015.6 |
| 20260906131610 | 17 | 126 | 0.0 | 4.8 | 0.00 | 0.03 | 0.03 | 99 | 1015.6 |
| 20260906130024 | 17 | 122 | 0.0 | 3.2 | 0.00 | 0.03 | 0.03 | 99 | 1015.5 |
| 20260906124605 | 17 | 134 | 1.6 | 8.0 | 0.00 | 0.03 | 0.03 | 99 | 1015.5 |
| 20260906123025 | 17 | 132 | 1.6 | 8.0 | 0.00 | 0.03 | 0.03 | 99 | 1015.4 |
| 20260906121544 | 17 | 141 | 0.0 | 3.2 | 0.00 | 0.03 | 0.03 | 99 | 1015.4 |
| 20260906120004 | 17 | 168 | 1.6 | 8.0 | 0.00 | 0.03 | 0.03 | 99 | 1015.1 |
| 20260906114531 | 17 | 119 | 0.0 | 0.0 | 0.00 | 0.03 | 0.03 | 99 | 1015.0 |
| 20260906113002 | 17 | 116 | 0.0 | 8.0 | 0.00 | 0.03 | 0.03 | 99 | 1015.0 |
| 20260906111547 | 17 | 86 | 1.6 | 6.4 | 0.03 | 0.03 | 0.03 | 99 | 1014.9 |
| 20260906110017 | 17 | 136 | 0.0 | 0.0 | 0.03 | 0.03 | 0.03 | 99 | 1014.9 |
| 20260906104528 | 17 | 101 | 0.0 | 0.0 | 0.03 | 0.03 | 0.03 | 98 | 1014.7 |
| 20260906103109 | 16 | 95 | 0.0 | 4.8 | 0.03 | 0.03 | 0.03 | 98 | 1014.6 |
| 20260906101533 | 16 | 90 | 0.0 | 0.0 | 0.00 | 0.00 | 0.00 | 98 | 1014.6 |
| 20260906100006 | 16 | 98 | 0.0 | 0.0 | 0.00 | 0.00 | 0.00 | 98 | 1014.6 |
| 20260906094530 | 16 | 98 | 0.0 | 0.0 | 0.00 | 0.00 | 0.00 | 97 | 1014.6 |
| 20260906093037 | 16 | 101 | 0.0 | 0.0 | 0.00 | 0.00 | 0.00 | 97 | 1014.6 |
| 20260906091514 | 16 | 101 | 0.0 | 0.0 | 0.00 | 0.00 | 0.00 | 97 | 1014.5 |
| 20260906090056 | 16 | 101 | 0.0 | 0.0 | 0.00 | 0.00 | 0.00 | 97 | 1014.5 |
| 20260906084530 | 16 | 101 | 0.0 | 0.0 | 0.00 | 0.00 | 0.00 | 97 | 1014.5 |
| 20260906083040 | 16 | 101 | 0.0 | 0.0 | 0.00 | 0.00 | 0.00 | 97 | 1014.5 |
| 20260906081600 | 17 | 101 | 0.0 | 4.8 | 0.00 | 0.00 | 0.00 | 97 | 1014.4 |
| 20260906080023 | 17 | 105 | 0.0 | 0.0 | 0.00 | 0.00 | 0.00 | 97 | 1014.6 |
| 20260906074559 | 17 | 80 | 0.0 | 0.0 | 0.00 | 0.00 | 0.00 | 97 | 1014.6 |
| 20260906073019 | 17 | 99 | 0.0 | 0.0 | 0.00 | 0.00 | 0.00 | 97 | 1014.5 |
| 20260906071601 | 17 | 67 | 0.0 | 4.8 | 0.00 | 0.00 | 0.00 | 97 | 1014.6 |
| 20260906070020 | 17 | 87 | 0.0 | 0.0 | 0.00 | 0.00 | 0.00 | 97 | 1014.6 |
| 20260906064544 | 17 | 82 | 0.0 | 1.6 | 0.00 | 0.00 | 0.00 | 97 | 1014.7 |
| 20260906063022 | 17 | 90 | 0.0 | 0.0 | 0.00 | 0.00 | 0.00 | 97 | 1014.7 |
| 20260906061502 | 17 | 94 | 0.0 | 4.8 | 0.00 | 0.00 | 0.00 | 97 | 1014.6 |
| 20260906060030 | 17 | 115 | 0.0 | 1.6 | 0.00 | 0.00 | 0.00 | 97 | 1014.8 |
| 20260906054509 | 17 | 115 | 0.0 | 8.0 | 0.00 | 0.00 | 0.00 | 96 | 1014.8 |
| 20260906053035 | 17 | 123 | 0.0 | 0.0 | 0.00 | 0.00 | 0.00 | 96 | 1014.8 |
| 20260906051541 | 17 | 87 | 0.0 | 1.6 | 0.00 | 0.00 | 0.00 | 95 | 1015.1 |
| 20260906050105 | 17 | 118 | 0.0 | 6.4 | 0.00 | 0.00 | 0.00 | 95 | 1015.3 |
| 20260906044534 | 17 | 97 | 0.0 | 9.7 | 0.00 | 0.00 | 0.00 | 95 | 1015.2 |
| 20260906041524 | 17 | 108 | 0.0 | 6.4 | 0.00 | 0.00 | 0.00 | 95 | 1015.2 |
| 20260906040105 | 17 | 121 | 0.0 | 0.0 | 0.00 | 0.00 | 0.00 | 96 | 1015.2 |
| 20260906034537 | 17 | 122 | 0.0 | 0.0 | 0.00 | 0.00 | 0.00 | 96 | 1015.0 |
| 20260906033035 | 17 | 92 | 0.0 | 1.6 | 0.00 | 0.00 | 0.00 | 96 | 1014.9 |
| 20260906031514 | 17 | 79 | 0.0 | 0.0 | 0.00 | 0.00 | 0.00 | 94 | 1015.1 |
| 20260906030036 | 17 | 105 | 0.0 | 0.0 | 0.00 | 0.00 | 0.00 | 94 | 1015.1 |
| 20260906024513 | 17 | 105 | 0.0 | 0.0 | 0.00 | 0.00 | 0.00 | 93 | 1015.0 |
| 20260906023057 | 17 | 105 | 0.0 | 0.0 | 0.00 | 0.00 | 0.00 | 92 | 1015.1 |
| 20260906021540 | 18 | 105 | 0.0 | 0.0 | 0.00 | 0.00 | 0.00 | 90 | 1014.9 |
| 20260906020004 | 18 | 105 | 0.0 | 0.0 | 0.00 | 0.00 | 0.00 | 89 | 1014.9 |
| 20260906014527 | 18 | 105 | 0.0 | 0.0 | 0.00 | 0.00 | 0.00 | 89 | 1014.5 |
| 20260906013004 | 18 | 105 | 0.0 | 0.0 | 0.00 | 0.00 | 0.00 | 88 | 1014.2 |
| 20260906011524 | 19 | 105 | 0.0 | 0.0 | 0.00 | 0.00 | 0.00 | 88 | 1013.8 |
| 20260906010002 | 20 | 105 | 0.0 | 0.0 | 0.00 | 0.00 | 0.00 | 87 | 1013.4 |
| 20260906004524 | 20 | 107 | 0.0 | 0.0 | 0.00 | 0.00 | 0.00 | 86 | 1013.4 |
| 20260906003104 | 20 | 95 | 0.0 | 0.0 | 0.00 | 0.00 | 0.00 | 85 | 1013.3 |
| 20260906001540 | 20 | 146 | 0.0 | 0.0 | 0.00 | 0.00 | 0.00 | 83 | 1013.2 |
| 20260906000105 | 21 | 157 | 0.0 | 1.6 | 0.00 | 0.00 | 0.00 | 82 | 1013.1 |
| 20260905234542 | 21 | 76 | 0.0 | 12.9 | 0.00 | 0.00 | 0.00 | 82 | 1013.2 |
| 20260905233018 | 21 | 115 | 0.0 | 16.1 | 0.00 | 0.00 | 0.00 | 82 | 1013.3 |
| 20260905231556 | 21 | 116 | 0.0 | 0.0 | 0.00 | 0.00 | 0.00 | 81 | 1013.1 |
| 20260905230034 | 21 | 107 | 0.0 | 19.3 | 0.00 | 0.00 | 0.00 | 81 | 1013.3 |
| 20260905224549 | 21 | 135 | 0.0 | 17.7 | 0.00 | 0.00 | 0.00 | 80 | 1013.1 |
| 20260905223040 | 21 | 141 | 3.2 | 19.3 | 0.00 | 0.00 | 0.00 | 79 | 1013.2 |
| 20260905221604 | 21 | 129 | 0.0 | 19.3 | 0.00 | 0.00 | 0.00 | 79 | 1013.4 |
| 20260905220040 | 21 | 100 | 3.2 | 20.9 | 0.00 | 0.00 | 0.00 | 79 | 1013.3 |
| 20260905214515 | 21 | 92 | 9.7 | 22.5 | 0.00 | 0.00 | 0.00 | 76 | 1013.3 |
| 20260905213037 | 22 | 114 | 4.8 | 22.5 | 0.00 | 0.00 | 0.00 | 75 | 1013.2 |
| 20260905211514 | 22 | 101 | 3.2 | 27.4 | 0.00 | 0.00 | 0.00 | 76 | 1013.6 |
| 20260905210052 | 22 | 165 | 3.2 | 19.3 | 0.00 | 0.00 | 0.00 | 77 | 1013.9 |